Flag for Brazil Weather past 2 weeks in Rio de Janeiro, Rio de Janeiro, Brazil

Now
75 °F

Clear.


Feels Like: 77 °F
Forecast: 66 / 86 °F
Wind: 5 mph from Northwest

Location: Rio De Janeiro Airport

Current Time: Aug 3, 2015 at 10:38:18 PM

Latest Report: Aug 3, 2015 at 10:00 PM


Visibility: 10 mi

Pressure: 30.07 "Hg

Humidity: 65%

Dew point: 63 °F

Location of Rio de JaneiroLocation

Historic Weather in Rio de Janeiro — Graph

°F

Rio de Janeiro temperature yesterday

Maximum temperature yesterday: 84 °F (at 1:00 PM)
Minimum temperature yesterday: 68 °F (at 5:00 AM)
Average temperature yesterday: 75 °F

Past Weeks' High & Low Weather Summary

 TemperatureHumidityPressure
High91 °F (Aug 1, 2:00 PM)100% (Jul 25, 9:00 AM)30.30 "Hg (Jul 25, 9:00 AM)
Low66 °F (Jul 22, 2:00 AM)35% (Jul 21, 1:00 PM)29.92 "Hg (Jul 21, 4:00 AM)
Average73 °F81%30.09 "Hg
* Reported Jul 19 9:00 PM — Aug 3 9:00 PM, Rio de Janeiro, Weather by CustomWeather, © 2015

Note: Actual official high and low records may vary slightly from our data, if they occured in-between our weather recording intervals... More about our weather records

Advertising

Rio de Janeiro weather history for previous 24 hours

 ConditionsComfort  
Time TempWeatherWind HumidityBarometerVisibility
9:00 PM
Mon, Aug 3
73 °FClear.No wind74%30.04 "Hg10 mi
8:00 PM75 °FClear.No wind74%30.04 "Hg10 mi
7:00 PM75 °FClear.6 mph65%30.04 "Hg10 mi
6:00 PM75 °FClear.5 mph61%30.04 "Hg10 mi
5:00 PM77 °FClear.7 mph61%30.01 "Hg10 mi
4:00 PM81 °FSunny.9 mph54%30.01 "Hg10 mi
3:00 PM79 °FSunny.12 mph65%30.01 "Hg10 mi
2:00 PM81 °FSunny.8 mph62%30.01 "Hg10 mi
1:00 PM82 °FSunny.12 mph51%30.04 "Hg10 mi
12:00 PM81 °FSunny.5 mph70%30.04 "Hg10 mi
11:00 AM77 °FSunny.6 mph69%30.07 "Hg10 mi
10:00 AM75 °FSunny.6 mph74%30.07 "Hg10 mi
9:00 AM73 °FSunny.6 mph78%30.04 "Hg10 mi
8:00 AM72 °FSunny.7 mph78%30.04 "Hg10 mi
7:00 AM70 °FSunny.7 mph88%30.01 "Hg10 mi
6:00 AM70 °FSunny.6 mph88%30.01 "Hg10 mi
5:00 AM70 °FClear.5 mph83%30.01 "Hg10 mi
4:00 AM70 °FClear.5 mph83%30.01 "Hg10 mi
3:00 AM70 °FClear.5 mph83%30.01 "Hg10 mi
2:00 AM70 °FClear.6 mph83%30.01 "Hg10 mi
1:00 AM70 °FClear.6 mph83%30.04 "Hg10 mi
12:00 AM72 °FClear.3 mph83%30.04 "Hg10 mi
11:00 PM
Sun, Aug 2
73 °FClear.5 mph83%30.04 "Hg10 mi
10:00 PM75 °FClear.7 mph74%30.04 "Hg10 mi
Weather by CustomWeather, © 2015

See weather overviewHow to use our weather pages